Weather in Perevalny

Russia / Stavropol Krai     44°23′53″N   42°47′27″E
temp.,
°C
wind,
m/s
gust,
m/s
humid.,
%
clouds,
%
prec.,
mm/h
press.,
hPa
HPBL,
m
13 may, thu
thu1300:00+10ese410810 0.0 1013185
03:00+9se22885 0.0 101323
06:00+11se12842 0.0 101462
09:00+17ese34660 0.0 1014502
12:00+21ese55561 0.0 1014897
15:00+22ese56558 0.0 10131054
18:00+20e58690 0.0 1013347
21:00+15ese410793 0.0 1014148
14 may, fri
fri1400:00+14ese3584100 0.0 101378
03:00+13ese338640 0.0 101334
06:00+14ese35870 0.0 1013109
09:00+21ese34670 0.0 1013387
12:00+25ese44550 0.0 1012711
15:00+26e66550 0.0 1011866
18:00+23e59694 0.0 1011295
21:00+18ese34785 0.0 101248
15 may, sat
sat1500:00+16ese338612 0.0 101130
03:00+15ese118714 0.0 101211
06:00+17w1182100 0.0 101226
09:00+22wnw577138 0.0 1013549
12:00+26nnw34590 0.0 10131150
15:00+27nne44540 0.0 10121450
18:00+25e2469100 0.0 1011128
21:00+19ese2283100 1.1 101211
16 may, sun
sun1600:00+18e2284100 0.1 101112
03:00+16e228768 0.1 101122
06:00+15e23792 0.0 101083
09:00+20e44595 0.0 1009372
12:00+24e67575 0.0 1008800
15:00+26e68515 0.0 10061098
18:00+23ese4965100 0.0 1005201
21:00+20ese71547100 0.0 1006397
17 may, mon
mon1700:00+15e5115789 0.0 1005234
03:00+14e3662100 0.0 1005119
06:00+14e246943 0.0 1005100
09:00+20e225661 0.0 1005338
12:00+24ene33545 0.0 1005832
15:00+25w4557100 0.1 10061367
18:00+17w51086100 2.5 1010427
21:00+15wsw2592100 2.9 1010112